View from above orbital plane
|
View from above satellite
|
Ground track
|
The orbit data is extracted from the following two-line orbital elements,
1 16511U 86008B 19348.84410281 +.00000044 +00000-0 +30232-4 0 9991
2 16511 082.9452 264.5512 0022754 258.6206 208.7742 13.75815358701239
Epoch (UTC): | 14 December 2019 20:15:30 |
Eccentricity: | 0.0022754 |
inclination: | 82.9452° |
perigee height: | 962 km |
apogee height: | 995 km |
right ascension of ascending node: | 264.5512° |
argument of perigee: | 258.6206° |
revolutions per day: | 13.75815358 |
mean anomaly at epoch: | 208.7742° |
orbit number at epoch: | 70123 |
The dashed part of the orbit path shows where the satellite is in the earth's shadow,
|
|